Location: Unspecified
(51.0000°N, 12.0000°E)
Time: 10:42:55
(UTC+01:00)

ISS - Pass Details

Date: 04 January 2018
Orbit: 402 x 406 km, 51.6° (Epoch: 16 January)

Event Time Altitude Azimuth Distance (km) Brightness Sun altitude
Exits shadow 05:23:14 28° 88° (E) 806 -1.7 -25.8°
Drops below altitude 10° 05:24:57 10° 79° (E) 1,469 -0.1 -25.5°
Sets 05:27:03 0° 76° (ENE) 2,332 1.2 -25.2°
